Weather History for Culdrose, United Kingdom

Change the Weather History Date:

Sunday, October 6, 2013

  Actual Average Record
Temperature  
Mean Temperature 57 °F -  
Max Temperature 63 °F 55 °F 64 °F (2002)
Min Temperature 51 °F 47 °F 42 °F (1999)
Degree Days  
Heating Degree Days 8    
Growing Degree Days 7 (Base 50)    
Moisture  
Dew Point 58 °F    
Average Humidity 96    
Maximum Humidity 100    
Minimum Humidity 88    
Precipitation  
Precipitation 0.00 in - - ()
Sea Level Pressure  
Sea Level Pressure 30.29 in    
Wind  
Wind Speed 4 mph ()    
Max Wind Speed 7 mph    
Max Gust Speed -    
Visibility 2.8 miles    
Events Fog    
Averages and records for this station are not official NWS values.
T = Trace of Precipitation, MM = Missing Value Source: Averaged Metar Reports

Daily Weather History Graph

Daily Weather History Graph

Search for Another Location

Airport:

Trip Planner

Search our weather history database for the weather conditions in past years. The results will help you decide how hot, cold, wet, or windy it might be!

Date:

Astronomy

Oct. 06, 2013 Rise Set
Actual Time 7:28 AM BST 6:48 PM BST
Civil Twilight 6:56 AM BST 7:20 PM BST
Nautical Twilight 6:19 AM BST 7:58 PM BST
Astronomical Twilight 5:40 AM BST 8:36 PM BST
Moon 9:10 AM BST (10/6) 7:23 PM BST (10/6)
Length of Visible Light 12h 24m
Length of Day
11h 19m
New Moon, 2% of the Moon is Illuminated
Oct 6
New Moon
Oct 12
First Quarter
Oct 19
Full
Oct 27
Last Quarter
Nov 3
New

Hourly Weather History & Observations

Time (BST) Temp. Dew Point Humidity Pressure Visibility Wind Dir Wind Speed Gust Speed Precip Events Conditions
12:50 AM 55 °F 55 °F 100% 30.28 in 5 mi SW 4.6 mph - - Fog Patches of Fog
12:50 AM 55.4 °F 55.4 °F 100% 30.27 in 5.0 mi SW 4.6 mph - N/A Fog Fog
1:50 AM 53.6 °F 53.6 °F 100% 30.27 in 0.6 mi SW 3.5 mph - N/A Fog Fog
2:50 AM 53.6 °F 53.6 °F 100% 30.27 in 0.7 mi SW 4.6 mph - N/A   Scattered Clouds
3:50 AM 57.2 °F 57.2 °F 100% 30.27 in 0.5 mi SW 3.5 mph - N/A Fog Fog
4:50 AM 57.2 °F 57.2 °F 100% 30.27 in 1.9 mi West 4.6 mph - N/A   Mostly Cloudy
5:50 AM 53.6 °F 53.6 °F 100% 30.27 in 0.3 mi WNW 4.6 mph - N/A Fog Fog
6:50 AM 55 °F 55 °F 100% 30.28 in 1 mi WSW 4.6 mph - - Fog Light Fog
6:50 AM 55.4 °F 55.4 °F 100% 30.27 in 0.6 mi WSW 4.6 mph - N/A Fog Fog
7:50 AM 55.4 °F 55.4 °F 100% 30.27 in 0.6 mi West 4.6 mph - N/A Fog Fog
8:50 AM 55.4 °F 55.4 °F 100% 30.30 in 0.6 mi SW 2.3 mph - N/A Fog Fog
9:50 AM 59 °F 58 °F 96% 30.31 in 4 mi SSW 2.3 mph - -   Mist
9:50 AM 59.0 °F 59.0 °F 100% 30.30 in 3.7 mi SSW 2.3 mph - N/A   Mostly Cloudy
10:50 AM 60.8 °F 59.0 °F 94% 30.30 in 6.2 mi SW 4.6 mph - N/A   Haze
11:50 AM 60.8 °F 59.0 °F 94% 30.30 in 6.2 mi SW 6.9 mph - N/A   Haze
12:50 PM 62 °F 59 °F 88% 30.32 in 9 mi SW 6.9 mph - -   Haze
12:50 PM 62.6 °F 59.0 °F 88% 30.30 in 6.2 mi SW 6.9 mph - N/A   Haze
1:50 PM 62.6 °F 59.0 °F 88% 30.30 in 6.2 mi SW 6.9 mph - N/A   Mostly Cloudy
2:50 PM 62.6 °F 60.8 °F 94% 30.30 in 5.0 mi SW 6.9 mph - N/A   Haze
3:50 PM 62 °F 60 °F 91% 30.30 in 5 mi SW 6.9 mph - -   Haze
3:50 PM 62.6 °F 60.8 °F 94% 30.30 in 5.0 mi SW 6.9 mph - N/A   Haze
4:50 PM 62.6 °F 60.8 °F 94% 30.27 in 5.0 mi SW 6.9 mph - N/A   Haze
5:50 PM 60.8 °F 59.0 °F 94% 30.27 in 2.5 mi SW 6.9 mph - N/A   Mostly Cloudy
6:36 PM 60.8 °F 59.0 °F 94% 30.27 in 0.5 mi SW 6.9 mph - N/A Fog Fog
6:50 PM 60 °F 59 °F 97% 30.30 in 2 mi SW 6.9 mph - - Fog Light Fog
6:50 PM 60.8 °F 59.0 °F 94% 30.27 in 1.9 mi SW 6.9 mph - N/A   Mostly Cloudy
7:50 PM 59.0 °F 59.0 °F 100% 30.30 in 1.6 mi SSW 5.8 mph - N/A   Mostly Cloudy
8:50 PM 60.8 °F 59.0 °F 94% 30.30 in 1.6 mi SSW 5.8 mph - N/A   Mostly Cloudy
9:50 PM 60 °F 60 °F 99% 30.32 in 0 mi SW 5.8 mph - - Fog Partial Fog
9:50 PM 60.8 °F 59.0 °F 94% 30.30 in 0.4 mi SW 5.8 mph - N/A Fog Fog
10:50 PM 59.0 °F 59.0 °F 100% 30.30 in 0.2 mi SSW 3.5 mph - N/A Fog Fog
11:50 PM 59.0 °F 59.0 °F 100% 30.30 in 0.2 mi SSW 4.6 mph - N/A Fog Fog